Weather History for Dayton Wright, OH

Change the Weather History Date:

Thursday, November 1, 2012

  Actual Average (KFFO) Record (KFFO)
Temperature  
Mean Temperature 44 °F -  
Max Temperature 51 °F 56 °F 78 °F (1999)
Min Temperature 37 °F 38 °F 28 °F (2002)
Degree Days  
Heating Degree Days 21    
Moisture  
Dew Point 29 °F    
Average Humidity 60    
Maximum Humidity 86    
Minimum Humidity 33    
Precipitation  
Precipitation 0.01 in - - ()
Sea Level Pressure  
Sea Level Pressure 29.83 in    
Wind  
Wind Speed 8 mph (West)    
Max Wind Speed 14 mph    
Max Gust Speed 21 mph    
Visibility 10 miles    
Events      
Averages and records for this station are not official NWS values.
T = Trace of Precipitation, MM = Missing Value Source: NWS Daily Summary

Daily Weather History Graph

Daily Weather History Graph

Search for Another Location

Airport:

Trip Planner

Search our weather history database for the weather conditions in past years. The results will help you decide how hot, cold, wet, or windy it might be!

Date:

Astronomy

Nov. 01, 2012 Rise Set
Actual Time 8:05 AM EDT 6:34 PM EDT
Civil Twilight 7:37 AM EDT 7:02 PM EDT
Nautical Twilight 7:06 AM EDT 7:34 PM EDT
Astronomical Twilight 6:34 AM EDT 8:05 PM EDT
Moon 8:31 PM EDT (11/1) 10:37 AM EDT (11/1)
Length of Visible Light 11h 24m
Length of Day
10h 28m
Waning Gibbous, 93% of the Moon is Illuminated
Nov 1
Waning Gibbous
Nov 6
Last Quarter
Nov 13
New
Nov 20
First Quarter
Nov 28
Full

Hourly Weather History & Observations

Time (EDT) Temp. Windchill Dew Point Humidity Pressure Visibility Wind Dir Wind Speed Gust Speed Precip Events Conditions
12:53 AM 39.0 °F 31.8 °F 35.1 °F 86% 29.81 in 10.0 mi West 11.5 mph 17.3 mph 0.01 in   Overcast
1:53 AM 39.0 °F 34.0 °F 35.1 °F 86% 29.81 in 10.0 mi West 6.9 mph - N/A   Overcast
2:53 AM 39.0 °F 34.8 °F 35.1 °F 86% 29.81 in 10.0 mi West 5.8 mph - N/A   Overcast
3:53 AM 39.9 °F 35.8 °F 35.1 °F 83% 29.80 in 10.0 mi WSW 5.8 mph - N/A   Overcast
4:53 AM 39.9 °F 35.8 °F 35.1 °F 83% 29.80 in 10.0 mi West 5.8 mph - N/A   Overcast
5:05 AM 41.0 °F 36.4 °F 35.6 °F 81% 29.79 in 10.0 mi West 6.9 mph - N/A   Overcast
6:11 AM 42.8 °F 38.0 °F 35.6 °F 76% 29.79 in 10.0 mi West 8.1 mph - N/A   Overcast
6:53 AM 41.0 °F 36.4 °F 35.1 °F 79% 29.82 in 10.0 mi West 6.9 mph - N/A   Overcast
8:53 AM 37.9 °F 32.1 °F 33.1 °F 83% 29.85 in 10.0 mi WSW 8.1 mph - N/A   Clear
9:53 AM 39.0 °F 34.0 °F 30.9 °F 73% 29.85 in 10.0 mi WSW 6.9 mph - N/A   Clear
10:53 AM 42.1 °F 37.1 °F 30.0 °F 62% 29.86 in 10.0 mi West 8.1 mph - N/A   Clear
11:53 AM 44.1 °F 38.1 °F 28.9 °F 55% 29.86 in 10.0 mi West 11.5 mph 18.4 mph N/A   Clear
12:53 PM 46.0 °F 41.0 °F 25.0 °F 44% 29.85 in 10.0 mi West 10.4 mph 19.6 mph N/A   Clear
1:53 PM 48.0 °F - 25.0 °F 41% 29.83 in 10.0 mi West 12.7 mph 18.4 mph N/A   Clear
2:53 PM 50.0 °F - 26.1 °F 39% 29.82 in 10.0 mi West 12.7 mph 20.7 mph N/A   Scattered Clouds
3:53 PM 50.0 °F - 24.1 °F 36% 29.82 in 10.0 mi West 13.8 mph 19.6 mph N/A   Partly Cloudy
4:53 PM 51.1 °F - 24.1 °F 35% 29.81 in 10.0 mi West 10.4 mph - N/A   Partly Cloudy
5:53 PM 50.0 °F - 21.9 °F 33% 29.82 in 10.0 mi West 10.4 mph - N/A   Clear
6:53 PM 46.9 °F - 21.9 °F 37% 29.83 in 10.0 mi WSW 4.6 mph - N/A   Scattered Clouds
7:53 PM 46.9 °F - 25.0 °F 42% 29.84 in 10.0 mi WSW 5.8 mph - N/A   Overcast
8:53 PM 48.0 °F - 26.1 °F 42% 29.85 in 10.0 mi West 5.8 mph - N/A   Overcast
9:53 PM 46.9 °F - 27.0 °F 46% 29.85 in 10.0 mi West 5.8 mph - N/A   Overcast
10:53 PM 46.9 °F - 28.0 °F 48% 29.86 in 10.0 mi West 5.8 mph - N/A   Overcast
11:53 PM 45.0 °F 42.6 °F 28.0 °F 52% 29.86 in 10.0 mi West 4.6 mph - N/A   Mostly Cloudy